Atka, AK

3:57 PM HDT on October 23, 2017 (GMT -0900)
Atka

Weather History for PAAK - March, 2014

Change the Weather History Date:

Sunday, March 23, 2014

  Actual Average (PADK) Record (PADK)
Temperature  
Mean Temperature 38 °F -  
Max Temperature 42 °F 38 °F 69 °F (1998)
Min Temperature 35 °F 30 °F 15 °F (2007)
Degree Days  
Heating Degree Days 26    
Moisture  
Dew Point 31 °F    
Average Humidity 72    
Maximum Humidity 81    
Minimum Humidity 61    
Precipitation  
Precipitation 0.00 in - - ()
Sea Level Pressure  
Sea Level Pressure 29.70 in    
Wind  
Wind Speed 19 mph (SW)    
Max Wind Speed 30 mph    
Max Gust Speed 38 mph    
Visibility 7 miles    
Events      
Averages and records for this station are not official NWS values.
T = Trace of Precipitation, MM = Missing Value Source: NWS Daily Summary

Daily Weather History Graph

Daily Weather History Graph

Search for Another Location

Airport or City:

Trip Planner

Search our weather history database for the weather conditions in past years. The results will help you decide how hot, cold, wet, or windy it might be!

Date:

Astronomy

Mar. 23, 2014 Rise Set
Actual Time 8:31 AM HDT 8:55 PM HDT
Civil Twilight 7:57 AM HDT 9:29 PM HDT
Nautical Twilight 7:17 AM HDT 10:10 PM HDT
Astronomical Twilight 6:35 AM HDT 10:53 PM HDT
Moon 4:02 AM HDT (3/23) 12:51 PM HDT (3/23)
Length of Visible Light 13h 32m
Length of Day
12h 24m
Waning Gibbous, 52% of the Moon is Illuminated
Mar 23
Waning Gibbous
Mar 23
Last Quarter
Mar 30
New
Apr 6
First Quarter
Apr 14
Full

Hourly Weather History & Observations

Time (HDT) Temp. Windchill Dew Point Humidity Pressure Visibility Wind Dir Wind Speed Gust Speed Precip Events Conditions
12:16 AM 37.4 °F 26.1 °F 32.0 °F 81% 29.78 in 7.0 mi SE 24.2 mph 28.8 mph N/A   Overcast
12:36 AM 37.4 °F 26.1 °F 32.0 °F 81% 29.77 in 5.0 mi ESE 24.2 mph 27.6 mph N/A   Overcast
12:56 AM 37.4 °F 25.9 °F 32.0 °F 81% 29.76 in 4.0 mi SE 25.3 mph 31.1 mph N/A   Overcast
1:16 AM 37.4 °F 25.6 °F 32.0 °F 81% 29.75 in 5.0 mi SE 26.5 mph 29.9 mph N/A   Overcast
1:36 AM 37.4 °F 26.1 °F 30.2 °F 75% 29.74 in 3.0 mi SE 24.2 mph 31.1 mph N/A   Overcast
1:56 AM 37.4 °F 26.6 °F 30.2 °F 75% 29.74 in 3.0 mi SE 21.9 mph - N/A   Overcast
2:16 AM 37.4 °F 26.1 °F 30.2 °F 75% 29.72 in 3.0 mi ESE 24.2 mph 28.8 mph N/A   Overcast
2:36 AM 37.4 °F 26.4 °F 30.2 °F 75% 29.71 in 4.0 mi SE 23.0 mph - N/A   Overcast
2:56 AM 37.4 °F 26.4 °F 30.2 °F 75% 29.70 in 4.0 mi ESE 23.0 mph 29.9 mph N/A   Overcast
3:16 AM 37.4 °F 26.4 °F 30.2 °F 75% 29.69 in 4.0 mi ESE 23.0 mph 27.6 mph N/A   Overcast
3:36 AM 37.4 °F 26.1 °F 30.2 °F 75% 29.67 in 5.0 mi ESE 24.2 mph - N/A   Overcast
3:56 AM 37.4 °F 26.1 °F 30.2 °F 75% 29.66 in 4.0 mi ESE 24.2 mph 28.8 mph N/A   Overcast
4:16 AM 37.4 °F 26.1 °F 30.2 °F 75% 29.65 in 4.0 mi SE 24.2 mph 29.9 mph N/A   Overcast
4:36 AM 37.4 °F 27.2 °F 30.2 °F 75% 29.64 in 3.0 mi ESE 19.6 mph 26.5 mph N/A   Overcast
4:56 AM 37.4 °F 26.6 °F 30.2 °F 75% 29.63 in 3.0 mi SE 21.9 mph 32.2 mph N/A   Overcast
5:16 AM 37.4 °F 26.1 °F 30.2 °F 75% 29.63 in 3.0 mi SE 24.2 mph 27.6 mph N/A   Overcast
5:56 AM 37.4 °F 26.9 °F 30.2 °F 75% 29.61 in 5.0 mi SE 20.7 mph - N/A   Overcast
6:16 AM 39.2 °F 29.8 °F 30.2 °F 70% 29.60 in 4.0 mi ESE 18.4 mph - N/A   Overcast
6:36 AM 39.2 °F 29.8 °F 32.0 °F 75% 29.59 in 2.5 mi ESE 18.4 mph - N/A   Overcast
6:56 AM 39.2 °F 29.0 °F 32.0 °F 75% 29.57 in 2.0 mi SE 21.9 mph 29.9 mph N/A   Overcast
7:16 AM 39.2 °F 27.6 °F 32.0 °F 75% 29.56 in 2.0 mi SSE 28.8 mph 35.7 mph N/A   Overcast
7:36 AM 39.2 °F 27.4 °F 32.0 °F 75% 29.56 in 3.0 mi SSE 29.9 mph 36.8 mph N/A   Overcast
7:56 AM 39.2 °F 27.4 °F 33.8 °F 81% 29.54 in 1.0 mi SE 29.9 mph 38.0 mph N/A   Overcast
8:16 AM 39.2 °F 29.0 °F 33.8 °F 81% 29.55 in 1.8 mi SE 21.9 mph 36.8 mph N/A   Overcast
8:36 AM 39.2 °F 31.2 °F 33.8 °F 81% 29.58 in 1.5 mi ESE 13.8 mph 27.6 mph N/A   Overcast
8:56 AM 41.0 °F 31.9 °F 33.8 °F 76% 29.57 in 1.0 mi East 19.6 mph 25.3 mph N/A   Overcast
9:16 AM 41.0 °F 32.8 °F 33.8 °F 76% 29.58 in 1.0 mi East 16.1 mph 24.2 mph N/A   Overcast
9:36 AM 42.8 °F 36.2 °F 35.6 °F 76% 29.57 in 1.5 mi ESE 12.7 mph - N/A   Overcast
9:56 AM 42.8 °F 38.6 °F 35.6 °F 76% 29.57 in 3.0 mi SE 6.9 mph - N/A   Overcast
10:16 AM 42.8 °F 36.2 °F 35.6 °F 76% 29.58 in 10.0 mi SW 12.7 mph - N/A   Overcast
10:36 AM 42.8 °F 35.4 °F 35.6 °F 76% 29.59 in 2.5 mi West 15.0 mph - N/A   Overcast
10:56 AM 42.8 °F 35.1 °F 35.6 °F 76% 29.60 in 7.0 mi West 16.1 mph 23.0 mph N/A   Overcast
11:16 AM 41.0 °F 32.5 °F 35.6 °F 81% 29.62 in 10.0 mi WNW 17.3 mph 23.0 mph N/A   Overcast
11:36 AM 41.0 °F 30.7 °F 35.6 °F 81% 29.62 in 10.0 mi West 25.3 mph 29.9 mph N/A   Overcast
11:56 AM 41.0 °F 31.1 °F 33.8 °F 76% 29.63 in 10.0 mi West 23.0 mph 31.1 mph N/A   Mostly Cloudy
12:16 PM 41.0 °F 31.9 °F 33.8 °F 76% 29.64 in 10.0 mi West 19.6 mph 29.9 mph N/A   Scattered Clouds
12:36 PM 41.0 °F 31.4 °F 33.8 °F 76% 29.65 in 10.0 mi WNW 21.9 mph 29.9 mph N/A   Clear
12:56 PM 42.8 °F 34.0 °F 33.8 °F 70% 29.66 in 10.0 mi WNW 20.7 mph 26.5 mph N/A   Clear
1:16 PM 42.8 °F 34.5 °F 30.2 °F 61% 29.67 in 10.0 mi WNW 18.4 mph 25.3 mph N/A   Clear
1:36 PM 42.8 °F 34.3 °F 30.2 °F 61% 29.68 in 10.0 mi WNW 19.6 mph 24.2 mph N/A   Clear
1:56 PM 42.8 °F 34.8 °F 30.2 °F 61% 29.68 in 10.0 mi WNW 17.3 mph 24.2 mph N/A   Clear
2:16 PM 42.8 °F 35.8 °F 32.0 °F 66% 29.70 in 10.0 mi WNW 13.8 mph 21.9 mph N/A   Scattered Clouds
2:36 PM 42.8 °F 34.8 °F 30.2 °F 61% 29.71 in 10.0 mi West 17.3 mph 24.2 mph N/A   Mostly Cloudy
2:56 PM 41.0 °F 33.1 °F 30.2 °F 65% 29.71 in 10.0 mi West 15.0 mph 21.9 mph N/A   Overcast
3:16 PM 41.0 °F 33.1 °F 30.2 °F 65% 29.72 in 10.0 mi West 15.0 mph 21.9 mph N/A   Overcast
3:36 PM 41.0 °F 33.9 °F 30.2 °F 65% 29.71 in 10.0 mi West 12.7 mph 21.9 mph N/A   Overcast
3:56 PM 41.0 °F 34.3 °F 30.2 °F 65% 29.72 in 10.0 mi West 11.5 mph - N/A   Overcast
4:16 PM 42.8 °F 36.6 °F 33.8 °F 70% 29.72 in 10.0 mi WNW 11.5 mph 18.4 mph N/A   Overcast
4:36 PM 42.8 °F 36.6 °F 30.2 °F 61% 29.73 in 10.0 mi West 11.5 mph - N/A   Overcast
4:56 PM 42.8 °F 36.6 °F 30.2 °F 61% 29.73 in 10.0 mi WNW 11.5 mph 17.3 mph N/A   Overcast
5:16 PM 41.0 °F 34.3 °F 28.4 °F 61% 29.74 in 10.0 mi WNW 11.5 mph - N/A   Overcast
5:36 PM 39.2 °F 32.0 °F 28.4 °F 65% 29.74 in 10.0 mi NW 11.5 mph - N/A   Overcast
5:56 PM 39.2 °F 33.6 °F 30.2 °F 70% 29.75 in 10.0 mi West 8.1 mph - N/A   Overcast
6:16 PM 39.2 °F 33.6 °F 30.2 °F 70% 29.76 in 10.0 mi WNW 8.1 mph - N/A   Overcast
6:36 PM 39.2 °F 34.2 °F 30.2 °F 70% 29.78 in 10.0 mi WNW 6.9 mph - N/A   Overcast
6:56 PM 39.2 °F 34.2 °F 28.4 °F 65% 29.78 in 10.0 mi WSW 6.9 mph - N/A   Overcast
7:16 PM 41.0 °F 35.8 °F 28.4 °F 61% 29.79 in 10.0 mi West 8.1 mph - N/A   Mostly Cloudy
7:36 PM 39.2 °F 35.0 °F 28.4 °F 65% 29.80 in 10.0 mi WSW 5.8 mph - N/A   Partly Cloudy
7:56 PM 39.2 °F 34.2 °F 28.4 °F 65% 29.80 in 10.0 mi SW 6.9 mph - N/A   Partly Cloudy
8:16 PM 37.4 °F 32.8 °F 28.4 °F 70% 29.81 in 10.0 mi SW 5.8 mph - N/A   Partly Cloudy
8:36 PM 35.6 °F 29.2 °F 28.4 °F 75% 29.82 in 10.0 mi SW 8.1 mph - N/A   Clear
8:56 PM 35.6 °F 28.6 °F 26.6 °F 70% 29.82 in 10.0 mi SW 9.2 mph - N/A   Clear
9:16 PM 35.6 °F 28.6 °F 26.6 °F 70% 29.83 in 10.0 mi SW 9.2 mph - N/A   Partly Cloudy
9:36 PM 35.6 °F 28.6 °F 26.6 °F 70% 29.84 in 10.0 mi SW 9.2 mph - N/A   Clear
9:56 PM 35.6 °F 29.2 °F 26.6 °F 70% 29.85 in 10.0 mi WSW 8.1 mph - N/A   Partly Cloudy
10:16 PM 35.6 °F 29.2 °F 26.6 °F 70% 29.86 in 10.0 mi SW 8.1 mph - N/A   Scattered Clouds
10:36 PM 35.6 °F 29.2 °F 28.4 °F 75% 29.87 in 10.0 mi SSW 8.1 mph - N/A   Mostly Cloudy
10:56 PM 37.4 °F 32.1 °F 28.4 °F 70% 29.87 in 10.0 mi SW 6.9 mph - N/A   Mostly Cloudy
11:16 PM 37.4 °F 31.4 °F 28.4 °F 70% 29.88 in 10.0 mi SW 8.1 mph - N/A   Overcast
11:36 PM 37.4 °F 29.3 °F 28.4 °F 70% 29.89 in 10.0 mi WNW 12.7 mph 16.1 mph N/A   Overcast
11:56 PM 35.6 °F 29.2 °F 28.4 °F 75% 29.90 in 2.0 mi West 8.1 mph - N/A   Overcast